Content
SEND FEEDBACK

Daily
Averages
Monthly
Summary
United States of America

AMITY, MISSOURI


Home > North America > United States > Missouri
Elevation: 1010 feet     Latitude: 39 52N     Longitude: 094 26W

WEATHER
 
SELECT A DAY
Number of Records: 192,953;   Date Range: 1/1/95 - 8/12/14
 
SHARE

PRINT THIS DATA

[ ← Previous Day ]
WEATHER ALMANAC - JANUARY 3, 2013
[ Next Day → ]
[ °C ]   °F
Weather ElementAverageHighLow
Temperature23.5 °F32 °F (11:53 am)12.9 °F (10:53 pm)
Dewpoint18 °F24.1 °F (10:53 am)9 °F (9:53 pm)
Humidity80.3 %93 % (6:38 am)61 % (1:53 pm)
Barometer30.40 in30.47 in (7:53 pm)30.30 in (1:53 am)
Wind Speed4.6 mph17.3 mph (1:53 pm)
Weather ElementAverage
Visibility8.2 mi
Wind DirectionSSE (170 °)

Weather ElementTotal
Precipitation---
Heating Degree Days42.6 (Base 65)
Averaged from 24 records on January 3, 2013
WEATHER CONDITIONS BREAKOUT
WIND DIRECTION BREAKOUT
WEATHER BY HOUR - JANUARY 3, 2013
[ °C ]   °F
Local TimeTemperatureDewpointHumidityBarometerVisibilityWind DirectionWind SpeedGust SpeedPrecipitationEventsConditions
1:53 AM19.0 °F16.0 °F88 %30.30 in4.0 miSouth (170°)3.5 mphMostly Cloudy
2:53 AM21.0 °F18.0 °F88 %30.33 in6.0 miCalmOvercast
3:53 AM25.0 °F21.9 °F88 %30.32 in8.0 miCalmOvercast
4:53 AM25.0 °F21.9 °F88 %30.32 in8.0 miSouth (170°)4.6 mphOvercast
5:53 AM24.1 °F21.0 °F88 %30.33 in8.0 miCalmMostly Cloudy
6:38 AM17.6 °F15.8 °F93 %30.31 in1.8 miCalmClear
6:48 AM21.2 °F17.6 °F86 %30.31 in3.0 miCalmClear
6:53 AM21.0 °F18.0 °F88 %30.35 in6.0 miCalmClear
7:53 AM18.0 °F16.0 °F92 %30.38 in6.0 miCalmClear
8:53 AM21.9 °F19.9 °F92 %30.40 in9.0 miWNW (290°)3.5 mphMostly Cloudy
9:53 AM27.0 °F21.9 °F81 %30.43 in10.0 miWNW (300°)5.8 mphMostly Cloudy
10:53 AM30.9 °F24.1 °F76 %30.44 in10.0 miNW (320°)9.2 mphClear
11:53 AM32.0 °F23.0 °F69 %30.43 in10.0 miNW (320°)6.9 mphOvercast
12:53 PM32.0 °F23.0 °F69 %30.42 in10.0 miNNW (330°)9.2 mphOvercast
1:53 PM32.0 °F19.9 °F61 %30.40 in10.0 miNNW (330°)17.3 mphPartly Cloudy
2:53 PM30.9 °F19.0 °F61 %30.41 in10.0 miNNW (340°)10.4 mphPartly Cloudy
3:53 PM30.0 °F19.9 °F66 %30.43 in10.0 miWNW (300°)10.4 mphOvercast
4:53 PM28.0 °F19.9 °F72 %30.43 in10.0 miWNW (300°)8.1 mphOvercast
5:53 PM25.0 °F18.0 °F75 %30.45 in10.0 miWNW (290°)8.1 mphPartly Cloudy
6:53 PM21.0 °F15.1 °F78 %30.46 in10.0 miWNW (290°)6.9 mphClear
7:53 PM17.1 °F12.0 °F81 %30.47 in10.0 miNNW (330°)6.9 mphClear
8:53 PM17.1 °F12.9 °F84 %30.47 in10.0 miCalmClear
9:53 PM14.0 °F9.0 °F80 %30.45 in10.0 miCalmClear
10:53 PM12.9 °F9.0 °F84 %30.44 in8.0 miCalmClear
Hourly data recorded from KSTJ, located miles away from Amity, Missouri







STORIES FROM OUR PARTNERS